Time,TemperatureF,DewpointF,PressureIn,WindDirection,WindDirectionDegrees,WindSpeedMPH,WindSpeedGustMPH,Humidity,HourlyPrecipIn,Conditions,Clouds,dailyrainin,SolarRadiationWatts/m^2,SoftwareType,DateUTC
2013-02-03 00:04:00,19.7,11.0,30.03,NW,324,0.0,-999.0,69,-99.99,,,0.00,0,weatherlink.com 1.10,2013-02-03 05:04:00,
2013-02-03 00:19:00,19.6,11.0,30.03,NW,323,0.0,-999.0,70,-99.99,,,0.00,0,weatherlink.com 1.10,2013-02-03 05:19:00,
2013-02-03 00:34:00,19.5,12.0,30.03,NW,323,0.0,-999.0,71,-99.99,,,0.00,0,weatherlink.com 1.10,2013-02-03 05:34:00,
2013-02-03 00:49:00,19.4,12.0,30.03,NW,324,0.0,-999.0,72,-99.99,,,0.00,0,weatherlink.com 1.10,2013-02-03 05:49:00,
2013-02-03 01:04:00,19.3,12.0,30.03,NW,324,0.0,-999.0,72,-99.99,,,0.00,0,weatherlink.com 1.10,2013-02-03 06:04:00,
2013-02-03 01:19:00,19.2,12.0,30.03,NW,325,0.0,-999.0,73,-99.99,,,0.00,0,weatherlink.com 1.10,2013-02-03 06:19:00,
2013-02-03 01:34:00,18.9,12.0,30.03,NW,325,0.0,-999.0,73,-99.99,,,0.00,0,weatherlink.com 1.10,2013-02-03 06:34:00,
2013-02-03 01:49:00,18.8,12.0,30.03,NNW,340,0.0,-999.0,74,-99.99,,,0.00,0,weatherlink.com 1.10,2013-02-03 06:49:00,
2013-02-03 02:04:00,18.6,12.0,30.03,NNW,333,0.0,-999.0,75,-99.99,,,0.00,0,weatherlink.com 1.10,2013-02-03 07:04:00,
2013-02-03 02:19:00,18.5,12.0,30.02,NW,322,0.0,-999.0,74,-99.99,,,0.00,0,weatherlink.com 1.10,2013-02-03 07:19:00,
2013-02-03 02:34:00,18.4,11.0,30.02,NNW,330,0.0,-999.0,74,-99.99,,,0.00,0,weatherlink.com 1.10,2013-02-03 07:34:00,
2013-02-03 02:49:00,18.3,12.0,30.02,NNW,329,0.0,-999.0,75,-99.99,,,0.00,0,weatherlink.com 1.10,2013-02-03 07:49:00,
2013-02-03 03:04:00,18.2,11.0,30.01,NNW,337,0.0,-999.0,74,-99.99,,,0.00,0,weatherlink.com 1.10,2013-02-03 08:04:00,
2013-02-03 03:19:00,18.2,11.0,30.00,North,360,3.0,-999.0,74,-99.99,,,0.00,0,weatherlink.com 1.10,2013-02-03 08:19:00,
2013-02-03 03:34:00,18.4,11.0,30.00,North,360,4.0,-999.0,74,-99.99,,,0.00,0,weatherlink.com 1.10,2013-02-03 08:34:00,
2013-02-03 03:49:00,18.4,12.0,30.00,NNW,337,0.0,-999.0,75,-99.99,,,0.00,0,weatherlink.com 1.10,2013-02-03 08:49:00,
2013-02-03 04:04:00,18.2,12.0,30.00,NNW,331,0.0,-999.0,75,-99.99,,,0.00,0,weatherlink.com 1.10,2013-02-03 09:04:00,
2013-02-03 04:19:00,18.1,11.0,29.99,North,355,1.0,-999.0,75,-99.99,,,0.00,0,weatherlink.com 1.10,2013-02-03 09:19:00,
2013-02-03 04:34:00,18.0,11.0,29.99,North,355,5.0,-999.0,75,-99.99,,,0.00,0,weatherlink.com 1.10,2013-02-03 09:34:00,
2013-02-03 04:49:00,17.8,11.0,29.99,North,360,6.0,-999.0,75,-99.99,,,0.00,0,weatherlink.com 1.10,2013-02-03 09:49:00,
2013-02-03 05:04:00,17.7,11.0,29.99,North,360,5.0,-999.0,76,-99.99,,,0.00,0,weatherlink.com 1.10,2013-02-03 10:04:00,
2013-02-03 05:19:00,17.6,11.0,29.99,North,355,1.0,-999.0,76,-99.99,,,0.00,0,weatherlink.com 1.10,2013-02-03 10:19:00,
2013-02-03 05:34:00,17.4,11.0,29.99,North,360,5.0,-999.0,77,-99.99,,,0.00,0,weatherlink.com 1.10,2013-02-03 10:34:00,
2013-02-03 05:49:00,17.3,12.0,29.99,North,355,4.0,-999.0,78,-99.99,,,0.00,0,weatherlink.com 1.10,2013-02-03 10:49:00,
2013-02-03 06:04:00,17.3,12.0,29.99,NNW,330,1.0,-999.0,78,-99.99,,,0.00,0,weatherlink.com 1.10,2013-02-03 11:04:00,
2013-02-03 06:19:00,17.2,11.0,29.99,North,355,4.0,-999.0,78,-99.99,,,0.00,0,weatherlink.com 1.10,2013-02-03 11:19:00,
2013-02-03 06:34:00,17.0,12.0,29.99,NNW,334,4.0,-999.0,79,-99.99,,,0.00,0,weatherlink.com 1.10,2013-02-03 11:34:00,
2013-02-03 06:49:00,16.8,11.0,29.99,NW,323,0.0,-999.0,79,-99.99,,,0.00,0,weatherlink.com 1.10,2013-02-03 11:49:00,
2013-02-03 07:04:00,16.4,11.0,29.99,NNW,331,6.0,-999.0,80,-99.99,,,0.00,7,weatherlink.com 1.10,2013-02-03 12:04:00,
2013-02-03 07:19:00,16.2,11.0,29.99,NNW,336,3.0,-999.0,81,-99.99,,,0.00,16,weatherlink.com 1.10,2013-02-03 12:19:00,
2013-02-03 07:34:00,16.0,11.0,29.98,NNW,335,6.0,-999.0,81,-99.99,,,0.00,33,weatherlink.com 1.10,2013-02-03 12:34:00,
2013-02-03 07:49:00,16.3,12.0,29.98,North,5,5.0,-999.0,82,-99.99,,,0.00,62,weatherlink.com 1.10,2013-02-03 12:49:00,
2013-02-03 08:04:00,16.6,12.0,29.98,NNE,22,7.0,-999.0,81,-99.99,,,0.00,93,weatherlink.com 1.10,2013-02-03 13:04:00,
2013-02-03 08:19:00,17.4,13.0,29.98,North,349,3.0,-999.0,81,-99.99,,,0.00,171,weatherlink.com 1.10,2013-02-03 13:19:00,
2013-02-03 08:34:00,18.0,13.0,29.98,NNE,13,5.0,-999.0,80,-99.99,,,0.00,211,weatherlink.com 1.10,2013-02-03 13:34:00,
2013-02-03 08:49:00,18.7,14.0,29.98,North,355,5.0,-999.0,80,-99.99,,,0.00,214,weatherlink.com 1.10,2013-02-03 13:49:00,
2013-02-03 09:04:00,19.3,14.0,29.98,North,360,5.0,-999.0,79,-99.99,,,0.00,281,weatherlink.com 1.10,2013-02-03 14:04:00,
2013-02-03 09:19:00,20.0,14.0,29.99,NNE,28,6.0,-999.0,76,-99.99,,,0.00,360,weatherlink.com 1.10,2013-02-03 14:19:00,
2013-02-03 09:34:00,20.5,14.0,29.98,NNE,29,5.0,-999.0,75,-99.99,,,0.00,264,weatherlink.com 1.10,2013-02-03 14:34:00,
2013-02-03 09:49:00,21.2,13.0,29.97,ENE,57,8.0,-999.0,71,-99.99,,,0.00,415,weatherlink.com 1.10,2013-02-03 14:49:00,
2013-02-03 10:04:00,21.9,14.0,29.97,NNE,29,7.0,-999.0,70,-99.99,,,0.00,229,weatherlink.com 1.10,2013-02-03 15:04:00,
2013-02-03 10:19:00,21.3,14.0,29.97,ENE,63,3.0,-999.0,72,-99.99,,,0.00,206,weatherlink.com 1.10,2013-02-03 15:19:00,
2013-02-03 10:34:00,21.7,14.0,29.97,North,5,9.0,-999.0,72,-99.99,,,0.00,237,weatherlink.com 1.10,2013-02-03 15:34:00,
2013-02-03 10:49:00,21.7,13.0,29.96,NW,324,6.0,-999.0,70,-99.99,,,0.00,304,weatherlink.com 1.10,2013-02-03 15:49:00,
2013-02-03 11:04:00,22.3,14.0,29.95,NNE,21,7.0,-999.0,69,-99.99,,,0.00,264,weatherlink.com 1.10,2013-02-03 16:04:00,
2013-02-03 11:19:00,22.3,13.0,29.93,NNE,25,7.0,-999.0,68,-99.99,,,0.00,350,weatherlink.com 1.10,2013-02-03 16:19:00,
2013-02-03 11:34:00,23.1,14.0,29.92,NNE,26,3.0,-999.0,67,-99.99,,,0.00,322,weatherlink.com 1.10,2013-02-03 16:34:00,
2013-02-03 11:49:00,23.4,13.0,29.90,NE,39,6.0,-999.0,65,-99.99,,,0.00,383,weatherlink.com 1.10,2013-02-03 16:49:00,
2013-02-03 12:04:00,24.1,13.0,29.89,NNW,345,8.0,-999.0,63,-99.99,,,0.00,598,weatherlink.com 1.10,2013-02-03 17:04:00,
2013-02-03 12:19:00,23.7,12.0,29.88,North,10,5.0,-999.0,62,-99.99,,,0.00,374,weatherlink.com 1.10,2013-02-03 17:19:00,
2013-02-03 12:34:00,24.3,13.0,29.87,North,360,9.0,-999.0,62,-99.99,,,0.00,260,weatherlink.com 1.10,2013-02-03 17:34:00,
2013-02-03 12:49:00,24.3,13.0,29.85,NW,307,11.0,-999.0,63,-99.99,,,0.00,190,weatherlink.com 1.10,2013-02-03 17:49:00,
2013-02-03 13:04:00,24.2,13.0,29.85,North,355,11.0,-999.0,62,-99.99,,,0.00,306,weatherlink.com 1.10,2013-02-03 18:04:00,
2013-02-03 13:19:00,24.5,12.0,29.84,NE,44,6.0,-999.0,60,-99.99,,,0.00,557,weatherlink.com 1.10,2013-02-03 18:19:00,
2013-02-03 13:34:00,25.0,12.0,29.83,ENE,70,5.0,-999.0,57,-99.99,,,0.00,234,weatherlink.com 1.10,2013-02-03 18:34:00,
2013-02-03 13:49:00,25.0,12.0,29.82,NE,38,6.0,-999.0,59,-99.99,,,0.00,186,weatherlink.com 1.10,2013-02-03 18:49:00,
2013-02-03 14:04:00,25.3,12.0,29.81,NNE,19,7.0,-999.0,58,-99.99,,,0.00,221,weatherlink.com 1.10,2013-02-03 19:04:00,
2013-02-03 14:19:00,25.2,12.0,29.81,North,9,10.0,-999.0,57,-99.99,,,0.00,178,weatherlink.com 1.10,2013-02-03 19:19:00,
2013-02-03 14:34:00,25.4,12.0,29.81,North,5,11.0,-999.0,56,-99.99,,,0.00,167,weatherlink.com 1.10,2013-02-03 19:34:00,
2013-02-03 14:49:00,25.8,12.0,29.82,North,5,6.0,-999.0,56,-99.99,,,0.00,172,weatherlink.com 1.10,2013-02-03 19:49:00,
2013-02-03 15:04:00,26.0,12.0,29.82,North,9,5.0,-999.0,55,-99.99,,,0.00,97,weatherlink.com 1.10,2013-02-03 20:04:00,
2013-02-03 15:19:00,25.8,12.0,29.81,NNE,28,8.0,-999.0,55,-99.99,,,0.00,86,weatherlink.com 1.10,2013-02-03 20:19:00,
2013-02-03 15:34:00,25.8,12.0,29.81,North,5,4.0,-999.0,55,-99.99,,,0.00,67,weatherlink.com 1.10,2013-02-03 20:34:00,
2013-02-03 15:49:00,25.8,12.0,29.81,NE,40,8.0,-999.0,55,-99.99,,,0.00,62,weatherlink.com 1.10,2013-02-03 20:49:00,
2013-02-03 16:04:00,25.8,12.0,29.80,NNE,28,9.0,-999.0,55,-99.99,,,0.00,44,weatherlink.com 1.10,2013-02-03 21:04:00,
2013-02-03 16:19:00,25.7,12.0,29.80,NE,52,5.0,-999.0,56,-99.99,,,0.00,33,weatherlink.com 1.10,2013-02-03 21:19:00,
2013-02-03 16:34:00,25.6,11.0,29.79,NE,44,6.0,-999.0,55,-99.99,,,0.00,16,weatherlink.com 1.10,2013-02-03 21:34:00,
2013-02-03 16:49:00,25.4,11.0,29.79,NNE,13,4.0,-999.0,55,-99.99,,,0.00,5,weatherlink.com 1.10,2013-02-03 21:49:00,
2013-02-03 17:04:00,25.3,11.0,29.78,NNE,21,1.0,-999.0,55,-99.99,,,0.00,0,weatherlink.com 1.10,2013-02-03 22:04:00,
2013-02-03 17:19:00,25.2,13.0,29.77,NNE,20,5.0,-999.0,61,-99.99,,,0.00,0,weatherlink.com 1.10,2013-02-03 22:19:00,
2013-02-03 17:34:00,25.0,12.0,29.77,NNE,28,4.0,-999.0,57,-99.99,,,0.00,0,weatherlink.com 1.10,2013-02-03 22:34:00,
2013-02-03 17:49:00,24.8,11.0,29.77,NNE,24,4.0,-999.0,57,-99.99,,,0.00,0,weatherlink.com 1.10,2013-02-03 22:49:00,
2013-02-03 18:04:00,24.7,11.0,29.76,North,5,0.0,-999.0,56,-99.99,,,0.00,0,weatherlink.com 1.10,2013-02-03 23:04:00,
2013-02-03 18:19:00,24.7,11.0,29.75,North,5,4.0,-999.0,56,-99.99,,,0.00,0,weatherlink.com 1.10,2013-02-03 23:19:00,
2013-02-03 18:34:00,24.6,11.0,29.75,NNE,19,4.0,-999.0,56,-99.99,,,0.00,0,weatherlink.com 1.10,2013-02-03 23:34:00,
2013-02-03 18:49:00,24.5,11.0,29.75,NNE,16,0.0,-999.0,56,-99.99,,,0.00,0,weatherlink.com 1.10,2013-02-03 23:49:00,
2013-02-03 19:04:00,24.5,11.0,29.75,NNE,15,5.0,-999.0,56,-99.99,,,0.00,0,weatherlink.com 1.10,2013-02-04 00:04:00,
2013-02-03 19:19:00,24.5,11.0,29.75,NNE,30,0.0,-999.0,56,-99.99,,,0.00,0,weatherlink.com 1.10,2013-02-04 00:19:00,
2013-02-03 19:34:00,24.5,11.0,29.75,North,9,3.0,-999.0,56,-99.99,,,0.00,0,weatherlink.com 1.10,2013-02-04 00:34:00,
2013-02-03 19:49:00,24.4,11.0,29.75,NNE,22,5.0,-999.0,57,-99.99,,,0.00,0,weatherlink.com 1.10,2013-02-04 00:49:00,
2013-02-03 20:04:00,24.3,11.0,29.75,NE,43,3.0,-999.0,58,-99.99,,,0.00,0,weatherlink.com 1.10,2013-02-04 01:04:00,
2013-02-03 20:19:00,24.1,12.0,29.75,NNE,18,4.0,-999.0,59,-99.99,,,0.00,0,weatherlink.com 1.10,2013-02-04 01:19:00,
2013-02-03 20:34:00,23.9,12.0,29.75,NNE,14,0.0,-999.0,60,-99.99,,,0.00,0,weatherlink.com 1.10,2013-02-04 01:34:00,
2013-02-03 20:49:00,23.8,12.0,29.74,NE,53,2.0,-999.0,61,-99.99,,,0.00,0,weatherlink.com 1.10,2013-02-04 01:49:00,
2013-02-03 21:04:00,23.7,12.0,29.73,NNE,26,1.0,-999.0,61,-99.99,,,0.00,0,weatherlink.com 1.10,2013-02-04 02:04:00,
2013-02-03 21:19:00,23.5,12.0,29.73,North,5,0.0,-999.0,62,-99.99,,,0.00,0,weatherlink.com 1.10,2013-02-04 02:19:00,
2013-02-03 21:34:00,23.4,12.0,29.72,North,11,6.0,-999.0,62,-99.99,,,0.00,0,weatherlink.com 1.10,2013-02-04 02:34:00,
2013-02-03 21:49:00,23.2,12.0,29.71,North,360,4.0,-999.0,63,-99.99,,,0.00,0,weatherlink.com 1.10,2013-02-04 02:49:00,
2013-02-03 22:04:00,23.0,12.0,29.71,NNW,346,0.0,-999.0,64,-99.99,,,0.00,0,weatherlink.com 1.10,2013-02-04 03:04:00,
2013-02-03 22:19:00,22.9,12.0,29.71,NNW,327,4.0,-999.0,64,-99.99,,,0.00,0,weatherlink.com 1.10,2013-02-04 03:19:00,
2013-02-03 22:34:00,22.6,12.0,29.70,North,5,2.0,-999.0,65,-99.99,,,0.00,0,weatherlink.com 1.10,2013-02-04 03:34:00,
2013-02-03 22:49:00,22.5,13.0,29.69,NW,321,2.0,-999.0,66,-99.99,,,0.00,0,weatherlink.com 1.10,2013-02-04 03:49:00,
2013-02-03 23:04:00,22.3,12.0,29.69,NW,326,8.0,-999.0,66,-99.99,,,0.00,0,weatherlink.com 1.10,2013-02-04 04:04:00,
2013-02-03 23:19:00,22.1,13.0,29.69,WNW,300,10.0,-999.0,67,-99.99,,,0.00,0,weatherlink.com 1.10,2013-02-04 04:19:00,
2013-02-03 23:34:00,21.8,12.0,29.69,NNW,333,0.0,-999.0,67,-99.99,,,0.00,0,weatherlink.com 1.10,2013-02-04 04:34:00,
2013-02-03 23:49:00,21.5,12.0,29.69,NW,304,7.0,-999.0,68,-99.99,,,0.00,0,weatherlink.com 1.10,2013-02-04 04:49:00,